sat.trackr.live / text

‹ back to catalog

STARLINK-32173

NORAD 60586 · 2024-150D

PAYLOAD ACTIVE UNKNOWN

§ Identity

Operator
Country
US
Launch date
2024-08-20
Launch site
AFETR
Launch vehicle
Mass (kg)
RCS (m²)

Purposes: comms

External: N2YO · Heavens-Above · Gunter

§ Orbital elements

Epoch: 2026-05-25T03:46:00.191424Z

Period
93.85 min
Inclination
53.1609°
Eccentricity
0.0001028
Mean motion
15.34390615 rev/d
Perigee alt
462.0 km
Apogee alt
463.4 km
Semi-major
6,840.9 km
B*
4.0108e-5
RAAN
310.7941°
Arg perigee
95.4617°
Mean anomaly
264.6502°
Rev number
9,976

§ Raw data

STARLINK-321731 60586U 24150D   26145.15694666  .00000979  00000+0  40108-4 0  99992 60586  53.1609 310.7941 0001028  95.4617 264.6502 15.34390615 99762

JSON: /api/v1/satellites/60586 · /tle

For live sub-satellite position, see the globe view (requires WebGL).

§ Visibility from observer

Set your observer location to see the next 7 days of passes ≥ 10°. The values pass through the URL so the page stays shareable.

No JS? Fill the form by hand. The geolocation button needs JavaScript.